Location: �mondeville
(49.4591°N, 1.3431°W)
Time: 05:39:31
(UTC+00:00)

Cosmos 1025 Rocket - Pass Details

Date: 22 October 2019
Orbit: 595 x 617 km, 82.5° (Epoch: 13 November)

Event Time Altitude Azimuth Distance (km) Brightness Sun altitude
Exits shadow 03:54:16 30° 7° (N) 1,093 4.4 -26.9°
Drops below altitude 10° 03:56:28 10° 9° (N) 1,949 5.9 -26.6°
Sets 03:58:42 0° 10° (N) 2,859 6.8 -26.2°
